Location: Newark
(48.6461°N, 4.3644°W)
Time: 02:03:40
(UTC+00:00)

A-11 Canister half - Pass Details

Date: 03 February 2020
Orbit: 1517 x 1683 km, 47.2° (Epoch: 26 February)

Event Time Altitude Azimuth Distance (km) Brightness Sun altitude
Exits shadow 03:48:28 22° 158° (SSE) 2,850 10.3 -38.9°
Drops below altitude 10° 03:51:26 10° 148° (SSE) 3,682 11.1 -38.5°
Sets 03:54:39 0° 142° (SE) 4,674 11.7 -38.0°
